Location: Seattle
(47.6064°N, 122.3308°W)
Time: 15:06:40
(UTC-08:00)

S-56A Canister/Altair - Pass Details

Date: 09 October 2022
Orbit: 638 x 2494 km, 38.9° (Epoch: 03 December)

Event Time Altitude Azimuth Distance (km) Brightness Sun altitude
Exits shadow 05:14:27 30° 231° (SW) 2,359 9.5 -21.8°
Maximum altitude 05:16:10 32° 211° (SSW) 2,156 9.4 -21.5°
Drops below altitude 10° 05:22:23 10° 150° (SSE) 2,888 10.6 -20.5°
Sets 05:24:55 0° 140° (SE) 3,626 11.4 -20.1°
